Content
SEND FEEDBACK

Daily
Averages
Monthly
Summary
United States of America

EL PASO, TEXAS


Home > North America > United States > Texas
Elevation: 3918 feet     Latitude: 31 48N     Longitude: 106 24W

WEATHER
 
SELECT A DAY
Number of Records: 175,935;   Date Range: 1/1/95 - 12/18/14
 
SHARE

PRINT THIS DATA

[ ← Previous Day ]
WEATHER ALMANAC - JULY 5, 2013
[ Next Day → ]
[ °C ]   °F
Weather ElementAverageHighLow
Temperature88 °F98.1 °F (3:51 pm)75.9 °F (6:51 am)
Dewpoint47.5 °F50 °F (3:51 am)42.1 °F (5:51 pm)
Humidity25.9 %39 % (4:51 am)15 % (5:51 pm)
Barometer29.67 in29.75 in (8:51 am)29.57 in (5:51 pm)
Wind Speed6.9 mph13.8 mph (1:51 pm)
Wind Gust19.6 mph (11:51 am)
Weather ElementAverage
Visibility10 mi
Wind DirectionSSE (143 °)

Weather ElementTotal
Precipitation---
Cooling Degree Days22 (Base 65)
Growing Degree Days37 (Base 50)
Averaged from 23 records on July 5, 2013
WEATHER CONDITIONS BREAKOUT
WIND DIRECTION BREAKOUT
WEATHER BY HOUR - JULY 5, 2013
[ °C ]   °F
Local TimeTemperatureDewpointHumidityBarometerVisibilityWind DirectionWind SpeedGust SpeedPrecipitationEventsConditions
1:51 AM80.1 °F45.0 °F29 %29.71 in10.0 miSouth (170°)3.5 mphScattered Clouds
2:51 AM78.1 °F46.9 °F33 %29.70 in10.0 miSouth (170°)4.6 mphScattered Clouds
3:51 AM78.1 °F50.0 °F37 %29.69 in10.0 miWSW (250°)12.7 mphScattered Clouds
4:51 AM77.0 °F50.0 °F39 %29.69 in10.0 miSW (230°)9.2 mphScattered Clouds
5:51 AM78.1 °F48.9 °F36 %29.69 in10.0 miVariable3.5 mphScattered Clouds
6:51 AM75.9 °F48.0 °F37 %29.72 in10.0 miENE (70°)8.1 mphScattered Clouds
7:51 AM78.1 °F50.0 °F37 %29.74 in10.0 miEast (80°)3.5 mphPartly Cloudy
8:51 AM81.0 °F50.0 °F34 %29.75 in10.0 miEast (90°)4.6 mphPartly Cloudy
9:51 AM84.0 °F50.0 °F31 %29.74 in10.0 miCalmPartly Cloudy
10:51 AM87.1 °F50.0 °F28 %29.74 in10.0 miVariable3.5 mphPartly Cloudy
11:51 AM91.0 °F50.0 °F24 %29.73 in10.0 miSW (230°)12.7 mph19.6 mphPartly Cloudy
12:51 PM93.0 °F48.9 °F22 %29.71 in10.0 miWSW (240°)9.2 mphPartly Cloudy
1:51 PM96.1 °F50.0 °F21 %29.68 in10.0 miWest (270°)13.8 mph17.3 mphPartly Cloudy
2:51 PM97.0 °F48.9 °F19 %29.64 in10.0 miWest (280°)9.2 mph16.1 mphPartly Cloudy
3:51 PM98.1 °F46.9 °F18 %29.61 in10.0 miVariable4.6 mphScattered Clouds
4:51 PM98.1 °F44.1 °F16 %29.58 in10.0 miVariable3.5 mphScattered Clouds
5:51 PM97.0 °F42.1 °F15 %29.57 in10.0 miSouth (180°)5.8 mphMostly Cloudy
6:51 PM97.0 °F43.0 °F16 %29.58 in10.0 miVariable5.8 mph17.3 mphMostly Cloudy
7:51 PM96.1 °F42.1 °F15 %29.60 in10.0 miSSE (150°)9.2 mphMostly Cloudy
8:51 PM93.2 °F42.8 °F17 %29.60 in10.0 miSSE (150°)6.9 mphMostly Cloudy
9:51 PM91.0 °F50.0 °F24 %29.63 in10.0 miWSW (250°)12.7 mphMostly Cloudy
10:51 PM89.1 °F48.0 °F24 %29.65 in10.0 miWSW (240°)9.2 mphMostly Cloudy
11:51 PM89.1 °F48.0 °F24 %29.65 in10.0 miWSW (240°)3.5 mphMostly Cloudy
Hourly data recorded from KELP, located miles away from El Paso, Texas







STORIES FROM OUR PARTNERS